Weather History for Glens Falls, NY

Change the Weather History Date:

Sunday, May 19, 2013

  Actual Average Record
Temperature  
Mean Temperature 52 °F 56 °F  
Max Temperature 61 °F 69 °F 88 °F (1962)
Min Temperature 42 °F 44 °F 28 °F (2002)
Degree Days  
Heating Degree Days 13 9  
Month to date heating degree days 167 223  
Since 1 July heating degree days 6860 7499  
Cooling Degree Days 0 0  
Month to date cooling degree days 0 0  
Year to date cooling degree days 0 1  
Growing Degree Days 2 (Base 50)    
Moisture  
Dew Point 49 °F    
Average Humidity 84    
Maximum Humidity 96    
Minimum Humidity 72    
Precipitation  
Precipitation 0.10 in 0.12 in 1.52 in (1966)
Month to date precipitation 0.63 2.20  
Year to date precipitation 8.69 13.08  
Sea Level Pressure  
Sea Level Pressure 30.26 in    
Wind  
Wind Speed 4 mph (South)    
Max Wind Speed 16 mph    
Max Gust Speed 24 mph    
Visibility 6 miles    
Events Fog , Rain    
T = Trace of Precipitation, MM = Missing Value Source: NWS Daily Summary

Daily Weather History Graph

Daily Weather History Graph

Search for Another Location

Airport:

Trip Planner

Search our weather history database for the weather conditions in past years. The results will help you decide how hot, cold, wet, or windy it might be!

Date:

Astronomy

May. 19, 2013 Rise Set
Actual Time 5:26 AM EDT 8:16 PM EDT
Civil Twilight 4:52 AM EDT 8:49 PM EDT
Nautical Twilight 4:10 AM EDT 9:32 PM EDT
Astronomical Twilight 3:21 AM EDT 10:21 PM EDT
Moon 2:08 PM EDT (5/19) 1:58 AM EDT (5/19)
Length of Visible Light 15h 57m
Length of Day
14h 50m
Waxing Gibbous, 65% of the Moon is Illuminated
May 19
Waxing Gibbous
May 25
Full
May 31
Last Quarter
Jun 8
New
Jun 16
First Quarter

Hourly Weather History & Observations

Time (EDT) Temp. Dew Point Humidity Pressure Visibility Wind Dir Wind Speed Gust Speed Precip Events Conditions
12:53 AM 52.0 °F 45.0 °F 77% 30.26 in 10.0 mi Calm Calm - N/A   Clear
1:53 AM 53.1 °F 46.9 °F 80% 30.26 in 10.0 mi SSW 4.6 mph - N/A   Clear
2:53 AM 50.0 °F 46.0 °F 86% 30.26 in 10.0 mi Calm Calm - N/A   Clear
3:53 AM 46.0 °F 44.1 °F 93% 30.28 in 10.0 mi Calm Calm - N/A   Clear
4:02 AM 44.6 °F 42.8 °F 93% 30.27 in 1.8 mi Calm Calm - N/A   Clear
4:12 AM 44.6 °F 42.8 °F 93% 30.27 in 0.8 mi Calm Calm - N/A   Clear
4:17 AM 44.6 °F 42.8 °F 93% 30.27 in 2.0 mi Calm Calm - N/A   Clear
4:25 AM 44.6 °F 42.8 °F 93% 30.27 in 4.0 mi Calm Calm - N/A   Clear
4:29 AM 44.6 °F 42.8 °F 93% 30.27 in 1.8 mi Calm Calm - N/A   Partly Cloudy
4:37 AM 46.4 °F 42.8 °F 87% 30.27 in 4.0 mi Calm Calm - N/A   Clear
4:53 AM 44.1 °F 43.0 °F 96% 30.28 in 2.0 mi Calm Calm - N/A   Clear
4:56 AM 42.8 °F 42.8 °F 100% 30.27 in 0.8 mi Calm Calm - N/A   Clear
5:14 AM 42.8 °F 42.8 °F 100% 30.28 in 0.8 mi Calm Calm - N/A   Mist
5:28 AM 42.8 °F 39.2 °F 87% 30.28 in 0.2 mi Calm Calm - N/A Fog Fog
5:43 AM 42.8 °F 39.2 °F 87% 30.28 in 0.2 mi Calm Calm - N/A Fog Fog
5:53 AM 42.1 °F 41.0 °F 96% 30.30 in 0.8 mi Calm Calm - N/A   Clear
6:01 AM 42.8 °F 39.2 °F 87% 30.29 in 2.5 mi Calm Calm - N/A   Clear
6:08 AM 42.8 °F 39.2 °F 87% 30.29 in 10.0 mi Calm Calm - N/A   Partly Cloudy
6:19 AM 44.6 °F 42.8 °F 93% 30.29 in 9.0 mi Calm Calm - N/A   Mostly Cloudy
6:35 AM 44.6 °F 42.8 °F 93% 30.29 in 10.0 mi Calm Calm - N/A   Scattered Clouds
6:53 AM 48.9 °F 46.0 °F 90% 30.30 in 10.0 mi Calm Calm - N/A   Clear
7:17 AM 51.8 °F 48.2 °F 88% 30.29 in 9.0 mi Calm Calm - N/A   Mostly Cloudy
7:53 AM 53.6 °F 48.2 °F 82% 30.29 in 10.0 mi Calm Calm - N/A   Overcast
8:53 AM 57.0 °F 50.0 °F 77% 30.30 in 10.0 mi South 3.5 mph - N/A   Overcast
9:53 AM 61.0 °F 51.1 °F 70% 30.29 in 10.0 mi South 6.9 mph - N/A   Overcast
10:53 AM 61.0 °F 52.0 °F 72% 30.30 in 10.0 mi SSW 6.9 mph - N/A   Overcast
11:53 AM 57.9 °F 53.1 °F 84% 30.30 in 3.0 mi South 11.5 mph 24.2 mph N/A   Haze
12:03 PM 57.2 °F 53.6 °F 88% 30.29 in 2.5 mi South 8.1 mph - 0.00 in Rain Light Rain
12:11 PM 57.2 °F 55.4 °F 94% 30.29 in 3.0 mi South 10.4 mph - 0.00 in Rain Light Rain
12:35 PM 57.2 °F 55.4 °F 94% 30.29 in 2.5 mi SSE 8.1 mph - 0.00 in Rain Light Rain
12:51 PM 57.2 °F 55.4 °F 94% 30.28 in 3.0 mi SSE 10.4 mph - 0.01 in Rain Light Rain
12:53 PM 57.0 °F 55.0 °F 93% 30.29 in 3.0 mi SSE 11.5 mph - 0.01 in Rain Light Rain
1:17 PM 57.2 °F 55.4 °F 94% 30.27 in 5.0 mi South 10.4 mph 20.7 mph 0.02 in Rain Light Rain
1:25 PM 57.2 °F 55.4 °F 94% 30.27 in 5.0 mi South 6.9 mph - 0.02 in Rain Light Rain
1:45 PM 57.2 °F 53.6 °F 88% 30.27 in 6.0 mi South 8.1 mph - 0.03 in   Overcast
1:53 PM 57.0 °F 55.0 °F 93% 30.28 in 4.0 mi South 8.1 mph - 0.03 in   Overcast
2:00 PM 57.2 °F 55.4 °F 94% 30.26 in 4.0 mi SSE 8.1 mph - 0.00 in Rain Light Rain
2:53 PM 57.0 °F 55.0 °F 93% 30.26 in 4.0 mi South 6.9 mph - 0.01 in Rain Light Rain
3:32 PM 57.2 °F 55.4 °F 94% 30.24 in 7.0 mi SSE 4.6 mph - 0.01 in Rain Light Rain
3:53 PM 57.9 °F 55.0 °F 90% 30.25 in 7.0 mi Calm Calm - 0.02 in Rain Light Rain
4:53 PM 57.0 °F 55.0 °F 93% 30.23 in 8.0 mi ESE 3.5 mph - 0.01 in Rain Light Rain
5:53 PM 57.0 °F 55.0 °F 93% 30.21 in 5.0 mi SSE 3.5 mph - 0.01 in Rain Light Rain
6:17 PM 57.2 °F 55.4 °F 94% 30.20 in 9.0 mi Calm Calm - 0.00 in   Overcast
6:53 PM 57.2 °F 55.4 °F 94% 30.19 in 7.0 mi Calm Calm - N/A   Overcast
7:53 PM 57.0 °F 55.0 °F 93% 30.19 in 10.0 mi SSW 4.6 mph - 0.01 in   Overcast
8:53 PM 57.0 °F 54.0 °F 89% 30.19 in 10.0 mi SSW 6.9 mph - 0.00 in   Overcast
9:53 PM 57.0 °F 54.0 °F 89% 30.18 in 10.0 mi South 9.2 mph - N/A   Overcast
10:53 PM 57.0 °F 54.0 °F 89% 30.16 in 10.0 mi South 5.8 mph - N/A   Overcast
11:53 PM 57.0 °F 54.0 °F 89% 30.15 in 10.0 mi SSW 6.9 mph - N/A   Overcast